Location: Sebastopol
(38.4021°N, 122.8239°W)
Time: 15:37:12
(UTC+00:00)

Cosmos 1833 Rocket - Pass Details

Date: 29 October 2020
Orbit: 832 x 840 km, 71.0° (Epoch: 01 December)

Event Time Altitude Azimuth Distance (km) Brightness Sun altitude
Exits shadow 13:29:20 17° 299° (WNW) 2,031 4.1 -13.4°
Maximum altitude 13:30:02 17° 308° (NW) 2,012 4.2 -13.3°
Drops below altitude 10° 13:33:37 10° 348° (NNW) 2,462 4.9 -12.6°
Sets 13:37:01 0° 8° (N) 3,401 5.9 -11.9°
